Time,TemperatureF,DewpointF,PressureIn,WindDirection,WindDirectionDegrees,WindSpeedMPH,WindSpeedGustMPH,Humidity,HourlyPrecipIn,Conditions,Clouds,dailyrainin,SoftwareType,DateUTC
2013-04-06 00:00:00,66.3,-99.9,29.90,WSW,239,4.0,5.0,255,0.00,,,0.76,Wunderground v.1.13,2013-04-06 04:00:00,
2013-04-06 00:10:00,66.3,-99.9,29.90,WSW,240,4.0,6.0,255,0.00,,,0.00,Wunderground v.1.13,2013-04-06 04:10:00,
2013-04-06 00:15:00,66.4,-99.9,29.90,WSW,240,4.0,4.0,255,0.00,,,0.00,Wunderground v.1.13,2013-04-06 04:15:00,
2013-04-06 00:20:00,66.3,-99.9,29.90,WSW,240,4.0,5.0,255,0.00,,,0.00,Wunderground v.1.13,2013-04-06 04:20:00,
2013-04-06 00:25:00,66.0,-99.9,29.90,WSW,243,4.0,4.0,255,0.00,,,0.00,Wunderground v.1.13,2013-04-06 04:25:00,
2013-04-06 00:30:00,65.6,-99.9,29.90,WSW,244,3.0,3.0,255,0.00,,,0.00,Wunderground v.1.13,2013-04-06 04:30:00,
2013-04-06 00:35:00,65.2,-99.9,29.91,WSW,244,3.0,3.0,255,0.00,,,0.00,Wunderground v.1.13,2013-04-06 04:35:00,
2013-04-06 00:45:00,64.3,-99.9,29.91,West,263,4.0,5.0,255,0.00,,,0.00,Wunderground v.1.13,2013-04-06 04:45:00,
2013-04-06 00:50:00,64.0,-99.9,29.91,West,267,4.0,6.0,255,0.00,,,0.00,Wunderground v.1.13,2013-04-06 04:50:00,
2013-04-06 00:55:00,63.7,-99.9,29.91,West,267,4.0,4.0,255,0.00,,,0.00,Wunderground v.1.13,2013-04-06 04:55:00,
2013-04-06 01:15:00,63.2,-99.9,29.91,West,273,4.0,6.0,255,0.00,,,0.00,Wunderground v.1.13,2013-04-06 05:15:00,
2013-04-06 01:20:00,63.2,-99.9,29.91,West,273,3.0,3.0,255,0.00,,,0.00,Wunderground v.1.13,2013-04-06 05:20:00,
2013-04-06 01:30:00,62.9,-99.9,29.91,West,273,3.0,4.0,255,0.00,,,0.00,Wunderground v.1.13,2013-04-06 05:30:00,
2013-04-06 01:35:00,62.7,-99.9,29.91,West,274,4.0,4.0,255,0.00,,,0.00,Wunderground v.1.13,2013-04-06 05:35:00,
2013-04-06 01:45:00,62.6,-99.9,29.91,West,275,3.0,3.0,255,0.00,,,0.00,Wunderground v.1.13,2013-04-06 05:45:00,
2013-04-06 01:55:00,62.4,-99.9,29.90,West,275,3.0,3.0,255,0.00,,,0.00,Wunderground v.1.13,2013-04-06 05:55:00,
2013-04-06 02:10:00,62.3,-99.9,29.91,West,275,3.0,3.0,255,0.00,,,0.00,Wunderground v.1.13,2013-04-06 06:10:00,
2013-04-06 02:20:00,62.1,-99.9,29.91,West,275,2.0,2.0,255,0.00,,,0.00,Wunderground v.1.13,2013-04-06 06:20:00,
2013-04-06 02:30:00,62.3,-99.9,29.91,West,274,3.0,3.0,255,0.00,,,0.00,Wunderground v.1.13,2013-04-06 06:30:00,
2013-04-06 02:40:00,62.3,-99.9,29.91,West,275,4.0,5.0,255,0.00,,,0.00,Wunderground v.1.13,2013-04-06 06:40:00,
2013-04-06 02:45:00,62.4,-99.9,29.91,West,275,4.0,4.0,255,0.00,,,0.00,Wunderground v.1.13,2013-04-06 06:45:00,
2013-04-06 02:50:00,62.4,-99.9,29.91,West,275,4.0,4.0,255,0.00,,,0.00,Wunderground v.1.13,2013-04-06 06:50:00,
2013-04-06 02:55:00,62.4,-99.9,29.91,West,275,3.0,3.0,255,0.00,,,0.00,Wunderground v.1.13,2013-04-06 06:55:00,
2013-04-06 03:00:00,62.4,-99.9,29.91,West,275,2.0,2.0,255,0.00,,,0.00,Wunderground v.1.13,2013-04-06 07:00:00,
2013-04-06 03:10:00,62.3,-99.9,29.91,West,275,1.0,2.0,255,0.00,,,0.00,Wunderground v.1.13,2013-04-06 07:10:00,
2013-04-06 03:15:00,62.1,-99.9,29.91,West,275,2.0,2.0,255,0.00,,,0.00,Wunderground v.1.13,2013-04-06 07:15:00,
2013-04-06 03:25:00,62.1,-99.9,29.91,West,275,1.0,1.0,255,0.00,,,0.00,Wunderground v.1.13,2013-04-06 07:25:00,
2013-04-06 03:30:00,62.0,-99.9,29.91,West,275,1.0,1.0,255,0.00,,,0.00,Wunderground v.1.13,2013-04-06 07:30:00,
2013-04-06 03:35:00,62.0,-99.9,29.91,West,275,1.0,1.0,255,0.00,,,0.00,Wunderground v.1.13,2013-04-06 07:35:00,
2013-04-06 03:45:00,62.1,-99.9,29.91,West,275,2.0,3.0,255,0.00,,,0.00,Wunderground v.1.13,2013-04-06 07:45:00,
2013-04-06 03:50:00,62.4,-99.9,29.91,West,276,3.0,4.0,255,0.00,,,0.00,Wunderground v.1.13,2013-04-06 07:50:00,
2013-04-06 04:00:00,62.7,-99.9,29.91,WNW,300,5.0,7.0,255,0.00,,,0.00,Wunderground v.1.13,2013-04-06 08:00:00,
2013-04-06 04:10:00,62.7,-99.9,29.91,NW,306,5.0,5.0,255,0.00,,,0.00,Wunderground v.1.13,2013-04-06 08:10:00,
2013-04-06 04:15:00,62.7,-99.9,29.91,NW,326,4.0,5.0,255,0.00,,,0.00,Wunderground v.1.13,2013-04-06 08:15:00,
2013-04-06 04:20:00,62.7,-99.9,29.91,NW,314,5.0,6.0,255,0.00,,,0.00,Wunderground v.1.13,2013-04-06 08:20:00,
2013-04-06 04:25:00,62.7,-99.9,29.91,NW,325,5.0,5.0,255,0.00,,,0.00,Wunderground v.1.13,2013-04-06 08:25:00,
2013-04-06 04:35:00,62.6,-99.9,29.91,NNW,329,6.0,6.0,255,0.00,,,0.00,Wunderground v.1.13,2013-04-06 08:35:00,
2013-04-06 04:45:00,62.4,-99.9,29.91,NNW,327,5.0,5.0,255,0.00,,,0.00,Wunderground v.1.13,2013-04-06 08:45:00,
2013-04-06 04:55:00,62.1,-99.9,29.91,NW,325,4.0,5.0,255,0.00,,,0.00,Wunderground v.1.13,2013-04-06 08:55:00,
2013-04-06 05:00:00,62.1,-99.9,29.91,NW,325,4.0,5.0,255,0.00,,,0.00,Wunderground v.1.13,2013-04-06 09:00:00,
2013-04-06 05:10:00,61.8,-99.9,29.91,NW,326,4.0,4.0,255,0.00,,,0.00,Wunderground v.1.13,2013-04-06 09:10:00,
2013-04-06 05:15:00,61.8,-99.9,29.91,NNW,329,4.0,4.0,255,0.00,,,0.00,Wunderground v.1.13,2013-04-06 09:15:00,
2013-04-06 05:25:00,61.6,-99.9,29.92,NW,320,5.0,5.0,255,0.00,,,0.00,Wunderground v.1.13,2013-04-06 09:25:00,
2013-04-06 05:30:00,61.5,-99.9,29.92,WNW,299,5.0,5.0,255,0.00,,,0.00,Wunderground v.1.13,2013-04-06 09:30:00,
2013-04-06 05:35:00,61.3,-99.9,29.92,NW,323,5.0,5.0,255,0.00,,,0.00,Wunderground v.1.13,2013-04-06 09:35:00,
2013-04-06 05:45:00,61.2,-99.9,29.92,WNW,302,5.0,5.0,255,0.00,,,0.00,Wunderground v.1.13,2013-04-06 09:45:00,
2013-04-06 05:55:00,61.0,-99.9,29.93,NW,316,5.0,5.0,255,0.00,,,0.00,Wunderground v.1.13,2013-04-06 09:55:00,
2013-04-06 06:00:00,61.0,-99.9,29.93,NW,314,5.0,5.0,255,0.00,,,0.00,Wunderground v.1.13,2013-04-06 10:00:00,
2013-04-06 06:15:00,60.7,-99.9,29.94,NW,319,6.0,7.0,255,0.00,,,0.00,Wunderground v.1.13,2013-04-06 10:15:00,
2013-04-06 06:20:00,60.5,-99.9,29.94,NW,323,6.0,6.0,255,0.00,,,0.00,Wunderground v.1.13,2013-04-06 10:20:00,
2013-04-06 06:25:00,60.4,-99.9,29.94,NW,317,6.0,6.0,255,0.00,,,0.00,Wunderground v.1.13,2013-04-06 10:25:00,
2013-04-06 06:30:00,60.4,-99.9,29.94,NNW,328,6.0,6.0,255,0.00,,,0.00,Wunderground v.1.13,2013-04-06 10:30:00,
2013-04-06 06:40:00,60.1,-99.9,29.94,NW,317,5.0,5.0,255,0.00,,,0.00,Wunderground v.1.13,2013-04-06 10:40:00,
2013-04-06 06:45:00,59.9,-99.9,29.94,NW,322,5.0,6.0,255,0.00,,,0.00,Wunderground v.1.13,2013-04-06 10:45:00,
2013-04-06 06:55:00,59.8,-99.9,29.94,NW,324,5.0,5.0,255,0.00,,,0.00,Wunderground v.1.13,2013-04-06 10:55:00,
2013-04-06 07:10:00,59.5,-99.9,29.95,NW,323,4.0,4.0,255,0.00,,,0.00,Wunderground v.1.13,2013-04-06 11:10:00,
2013-04-06 07:15:00,59.3,-99.9,29.95,NW,322,4.0,5.0,255,0.00,,,0.00,Wunderground v.1.13,2013-04-06 11:15:00,
2013-04-06 07:25:00,59.3,-99.9,29.96,NW,315,4.0,5.0,255,0.00,,,0.00,Wunderground v.1.13,2013-04-06 11:25:00,
2013-04-06 07:35:00,59.2,-99.9,29.97,NW,318,4.0,5.0,255,0.00,,,0.01,Wunderground v.1.13,2013-04-06 11:35:00,
2013-04-06 07:40:00,59.2,-99.9,29.97,NNW,327,4.0,4.0,255,0.00,,,0.01,Wunderground v.1.13,2013-04-06 11:40:00,
2013-04-06 07:50:00,59.3,-99.9,29.98,NW,311,4.0,5.0,255,0.00,,,0.01,Wunderground v.1.13,2013-04-06 11:50:00,
2013-04-06 07:55:00,59.6,-99.9,29.98,NW,307,4.0,6.0,255,0.00,,,0.01,Wunderground v.1.13,2013-04-06 11:55:00,
2013-04-06 08:00:00,59.8,-99.9,29.98,WNW,294,5.0,5.0,255,0.00,,,0.01,Wunderground v.1.13,2013-04-06 12:00:00,
2013-04-06 08:10:00,60.1,-99.9,29.99,NW,315,6.0,6.0,255,0.00,,,0.01,Wunderground v.1.13,2013-04-06 12:10:00,
2013-04-06 08:15:00,60.2,-99.9,29.99,NW,310,5.0,5.0,255,0.00,,,0.01,Wunderground v.1.13,2013-04-06 12:15:00,
2013-04-06 08:20:00,60.2,-99.9,29.99,NW,319,5.0,6.0,255,0.00,,,0.01,Wunderground v.1.13,2013-04-06 12:20:00,
2013-04-06 08:25:00,60.7,-99.9,29.99,NW,312,5.0,9.0,255,0.00,,,0.01,Wunderground v.1.13,2013-04-06 12:25:00,
2013-04-06 08:30:00,60.7,-99.9,29.99,NNW,328,5.0,5.0,255,0.00,,,0.01,Wunderground v.1.13,2013-04-06 12:30:00,
2013-04-06 08:40:00,61.0,-99.9,30.00,NW,320,6.0,6.0,255,0.00,,,0.01,Wunderground v.1.13,2013-04-06 12:40:00,
2013-04-06 08:45:00,61.3,-99.9,30.00,NW,321,6.0,7.0,255,0.00,,,0.01,Wunderground v.1.13,2013-04-06 12:45:00,
2013-04-06 08:55:00,61.8,-99.9,29.99,WNW,295,7.0,7.0,255,0.00,,,0.01,Wunderground v.1.13,2013-04-06 12:55:00,
2013-04-06 09:00:00,62.3,-99.9,29.99,NW,325,7.0,7.0,255,0.00,,,0.01,Wunderground v.1.13,2013-04-06 13:00:00,
2013-04-06 09:10:00,63.1,-99.9,29.98,NW,322,7.0,7.0,255,0.00,,,0.01,Wunderground v.1.13,2013-04-06 13:10:00,
2013-04-06 09:20:00,63.7,-99.9,29.98,North,351,7.0,7.0,255,0.00,,,0.01,Wunderground v.1.13,2013-04-06 13:20:00,
2013-04-06 09:25:00,64.5,-99.9,29.98,NW,312,6.0,7.0,255,0.00,,,0.01,Wunderground v.1.13,2013-04-06 13:25:00,
2013-04-06 09:30:00,64.7,-99.9,29.98,NNW,331,6.0,7.0,255,0.00,,,0.01,Wunderground v.1.13,2013-04-06 13:30:00,
2013-04-06 09:40:00,65.6,-99.9,29.98,NW,325,7.0,7.0,255,0.00,,,0.01,Wunderground v.1.13,2013-04-06 13:40:00,
2013-04-06 09:50:00,66.8,-99.9,29.98,NNW,331,6.0,10.0,255,0.00,,,0.01,Wunderground v.1.13,2013-04-06 13:50:00,
2013-04-06 09:55:00,67.4,-99.9,29.98,WNW,300,6.0,7.0,255,0.00,,,0.01,Wunderground v.1.13,2013-04-06 13:55:00,
2013-04-06 10:00:00,67.8,-99.9,29.98,NNW,341,7.0,7.0,255,0.00,,,0.01,Wunderground v.1.13,2013-04-06 14:00:00,
2013-04-06 10:10:00,68.1,-99.9,29.99,NW,325,7.0,8.0,255,0.00,,,0.01,Wunderground v.1.13,2013-04-06 14:10:00,
2013-04-06 10:20:00,68.9,-99.9,29.99,NW,319,6.0,6.0,255,0.00,,,0.01,Wunderground v.1.13,2013-04-06 14:20:00,
2013-04-06 10:25:00,69.4,-99.9,29.99,NNW,348,7.0,7.0,255,0.00,,,0.01,Wunderground v.1.13,2013-04-06 14:25:00,
2013-04-06 10:30:00,69.9,-99.9,29.99,NW,319,6.0,6.0,255,0.00,,,0.01,Wunderground v.1.13,2013-04-06 14:30:00,
2013-04-06 10:40:00,70.3,-99.9,29.99,NW,319,6.0,6.0,255,0.00,,,0.01,Wunderground v.1.13,2013-04-06 14:40:00,
2013-04-06 10:50:00,70.8,-99.9,30.00,NW,307,5.0,5.0,255,0.00,,,0.01,Wunderground v.1.13,2013-04-06 14:50:00,
2013-04-06 10:55:00,70.9,-99.9,30.00,NNW,344,5.0,5.0,255,0.00,,,0.01,Wunderground v.1.13,2013-04-06 14:55:00,
2013-04-06 11:10:00,72.1,-99.9,30.00,NNW,327,7.0,7.0,255,0.00,,,0.01,Wunderground v.1.13,2013-04-06 15:10:00,
2013-04-06 11:15:00,72.8,-99.9,30.00,NW,319,7.0,7.0,255,0.00,,,0.01,Wunderground v.1.13,2013-04-06 15:15:00,
2013-04-06 11:20:00,73.3,-99.9,30.00,North,5,6.0,6.0,255,0.00,,,0.01,Wunderground v.1.13,2013-04-06 15:20:00,
2013-04-06 11:30:00,73.5,-99.9,30.00,NNW,348,5.0,8.0,255,0.00,,,0.01,Wunderground v.1.13,2013-04-06 15:30:00,
2013-04-06 11:35:00,74.0,-99.9,30.00,North,350,5.0,6.0,255,0.00,,,0.01,Wunderground v.1.13,2013-04-06 15:35:00,
2013-04-06 11:40:00,74.2,-99.9,30.00,North,355,6.0,6.0,255,0.00,,,0.01,Wunderground v.1.13,2013-04-06 15:40:00,
2013-04-06 11:45:00,74.9,-99.9,30.00,NNW,341,6.0,6.0,255,0.00,,,0.01,Wunderground v.1.13,2013-04-06 15:45:00,
2013-04-06 11:55:00,75.4,-99.9,30.00,NNE,17,5.0,5.0,255,0.00,,,0.01,Wunderground v.1.13,2013-04-06 15:55:00,
2013-04-06 12:15:00,75.4,-99.9,30.00,NE,51,6.0,6.0,255,0.00,,,0.01,Wunderground v.1.13,2013-04-06 16:15:00,
2013-04-06 12:20:00,75.8,-99.9,30.00,NE,53,6.0,8.0,255,0.00,,,0.01,Wunderground v.1.13,2013-04-06 16:20:00,
2013-04-06 12:25:00,75.6,-99.9,30.00,NNE,30,7.0,7.0,255,0.00,,,0.01,Wunderground v.1.13,2013-04-06 16:25:00,
2013-04-06 12:30:00,76.1,-99.9,30.00,NNE,27,7.0,7.0,255,0.00,,,0.01,Wunderground v.1.13,2013-04-06 16:30:00,
2013-04-06 12:35:00,76.3,-99.9,30.00,NE,40,7.0,7.0,255,0.00,,,0.01,Wunderground v.1.13,2013-04-06 16:35:00,
2013-04-06 12:40:00,76.5,-99.9,30.00,NE,37,8.0,8.0,255,0.00,,,0.01,Wunderground v.1.13,2013-04-06 16:40:00,
2013-04-06 12:50:00,77.2,-99.9,30.00,North,5,8.0,8.0,255,0.00,,,0.01,Wunderground v.1.13,2013-04-06 16:50:00,
2013-04-06 13:00:00,77.4,-99.9,30.00,NE,34,8.0,9.0,255,0.00,,,0.01,Wunderground v.1.13,2013-04-06 17:00:00,
2013-04-06 13:10:00,77.4,-99.9,30.00,North,5,9.0,12.0,255,0.00,,,0.01,Wunderground v.1.13,2013-04-06 17:10:00,
2013-04-06 13:15:00,76.8,-99.9,30.00,North,360,9.0,9.0,255,0.00,,,0.01,Wunderground v.1.13,2013-04-06 17:15:00,
2013-04-06 13:20:00,77.6,-99.9,30.00,NNE,25,9.0,9.0,255,0.00,,,0.01,Wunderground v.1.13,2013-04-06 17:20:00,
2013-04-06 13:25:00,77.9,-99.9,30.00,NE,37,8.0,8.0,255,0.00,,,0.01,Wunderground v.1.13,2013-04-06 17:25:00,
2013-04-06 13:35:00,78.6,-99.9,30.00,NNE,12,9.0,9.0,255,0.00,,,0.01,Wunderground v.1.13,2013-04-06 17:35:00,
2013-04-06 13:40:00,77.2,-99.9,30.00,North,360,8.0,8.0,255,0.00,,,0.01,Wunderground v.1.13,2013-04-06 17:40:00,
2013-04-06 13:45:00,77.9,-99.9,30.00,ENE,63,8.0,11.0,255,0.00,,,0.01,Wunderground v.1.13,2013-04-06 17:45:00,
2013-04-06 13:55:00,77.6,-99.9,30.00,NE,42,8.0,10.0,255,0.00,,,0.01,Wunderground v.1.13,2013-04-06 17:55:00,
2013-04-06 14:00:00,77.6,-99.9,30.00,NNE,24,8.0,8.0,255,0.00,,,0.01,Wunderground v.1.13,2013-04-06 18:00:00,
2013-04-06 14:10:00,78.6,-99.9,29.99,North,355,8.0,8.0,255,0.00,,,0.01,Wunderground v.1.13,2013-04-06 18:10:00,
2013-04-06 14:20:00,78.5,-99.9,29.98,NE,51,7.0,7.0,255,0.00,,,0.01,Wunderground v.1.13,2013-04-06 18:20:00,
2013-04-06 14:25:00,77.2,-99.9,29.98,NNE,24,7.0,7.0,255,0.00,,,0.01,Wunderground v.1.13,2013-04-06 18:25:00,
2013-04-06 14:35:00,77.6,-99.9,29.98,NNE,31,6.0,6.0,255,0.00,,,0.01,Wunderground v.1.13,2013-04-06 18:35:00,
2013-04-06 14:40:00,77.6,-99.9,29.98,NE,40,6.0,6.0,255,0.00,,,0.01,Wunderground v.1.13,2013-04-06 18:40:00,
2013-04-06 14:45:00,77.4,-99.9,29.98,NE,40,6.0,6.0,255,0.00,,,0.01,Wunderground v.1.13,2013-04-06 18:45:00,
2013-04-06 14:50:00,77.4,-99.9,29.98,NE,38,4.0,4.0,255,0.00,,,0.01,Wunderground v.1.13,2013-04-06 18:50:00,
2013-04-06 14:55:00,77.6,-99.9,29.98,NE,51,3.0,4.0,255,0.00,,,0.01,Wunderground v.1.13,2013-04-06 18:55:00,
2013-04-06 15:00:00,77.2,-99.9,29.98,ENE,68,5.0,8.0,255,0.00,,,0.01,Wunderground v.1.13,2013-04-06 19:00:00,
2013-04-06 15:10:00,77.2,-99.9,29.98,North,360,5.0,5.0,255,0.00,,,0.01,Wunderground v.1.13,2013-04-06 19:10:00,
2013-04-06 15:15:00,77.4,-99.9,29.98,NNE,32,5.0,8.0,255,0.00,,,0.01,Wunderground v.1.13,2013-04-06 19:15:00,
2013-04-06 15:20:00,76.7,-99.9,29.98,NE,40,7.0,7.0,255,0.00,,,0.01,Wunderground v.1.13,2013-04-06 19:20:00,
2013-04-06 15:30:00,75.6,-99.9,29.98,NE,34,7.0,7.0,255,0.00,,,0.01,Wunderground v.1.13,2013-04-06 19:30:00,
2013-04-06 15:40:00,77.6,-99.9,29.99,NE,46,6.0,6.0,255,0.00,,,0.01,Wunderground v.1.13,2013-04-06 19:40:00,
2013-04-06 15:45:00,77.0,-99.9,29.99,North,10,6.0,7.0,255,0.00,,,0.01,Wunderground v.1.13,2013-04-06 19:45:00,
2013-04-06 15:50:00,76.5,-99.9,29.99,NNE,15,7.0,7.0,255,0.00,,,0.01,Wunderground v.1.13,2013-04-06 19:50:00,
2013-04-06 16:00:00,75.4,-99.9,29.99,North,11,8.0,8.0,255,0.00,,,0.01,Wunderground v.1.13,2013-04-06 20:00:00,
2013-04-06 16:10:00,75.8,-99.9,29.98,NE,48,7.0,7.0,255,0.00,,,0.01,Wunderground v.1.13,2013-04-06 20:10:00,
2013-04-06 16:15:00,76.0,-99.9,29.98,NE,38,7.0,8.0,255,0.00,,,0.01,Wunderground v.1.13,2013-04-06 20:15:00,
2013-04-06 16:20:00,76.0,-99.9,29.98,NE,34,6.0,6.0,255,0.00,,,0.01,Wunderground v.1.13,2013-04-06 20:20:00,
2013-04-06 16:30:00,75.1,-99.9,29.98,NNE,22,7.0,7.0,255,0.00,,,0.01,Wunderground v.1.13,2013-04-06 20:30:00,
2013-04-06 16:40:00,75.6,-99.9,29.98,NE,44,6.0,6.0,255,0.00,,,0.01,Wunderground v.1.13,2013-04-06 20:40:00,
2013-04-06 16:50:00,76.0,-99.9,29.98,NE,53,8.0,10.0,255,0.00,,,0.01,Wunderground v.1.13,2013-04-06 20:50:00,
2013-04-06 16:55:00,77.0,-99.9,29.98,NE,52,8.0,8.0,255,0.00,,,0.01,Wunderground v.1.13,2013-04-06 20:55:00,
2013-04-06 17:10:00,76.5,-99.9,29.98,NE,45,7.0,9.0,255,0.00,,,0.01,Wunderground v.1.13,2013-04-06 21:10:00,
2013-04-06 17:20:00,77.9,-99.9,29.98,NNE,21,7.0,7.0,255,0.00,,,0.01,Wunderground v.1.13,2013-04-06 21:20:00,
2013-04-06 17:25:00,77.9,-99.9,29.98,NNE,13,8.0,10.0,255,0.00,,,0.01,Wunderground v.1.13,2013-04-06 21:25:00,
2013-04-06 17:35:00,76.3,-99.9,29.99,North,5,6.0,8.0,255,0.00,,,0.01,Wunderground v.1.13,2013-04-06 21:35:00,
2013-04-06 17:45:00,76.3,-99.9,29.99,NNE,24,7.0,7.0,255,0.00,,,0.01,Wunderground v.1.13,2013-04-06 21:45:00,
2013-04-06 17:55:00,76.5,-99.9,30.00,NNE,24,7.0,7.0,255,0.00,,,0.01,Wunderground v.1.13,2013-04-06 21:55:00,
2013-04-06 18:00:00,76.3,-99.9,30.00,North,5,7.0,8.0,255,0.00,,,0.01,Wunderground v.1.13,2013-04-06 22:00:00,
2013-04-06 18:10:00,76.0,-99.9,30.00,NE,34,7.0,7.0,255,0.00,,,0.01,Wunderground v.1.13,2013-04-06 22:10:00,
2013-04-06 18:15:00,76.1,-99.9,30.00,NNE,12,6.0,6.0,255,0.00,,,0.01,Wunderground v.1.13,2013-04-06 22:15:00,
2013-04-06 18:20:00,76.0,-99.9,30.00,NNE,24,7.0,8.0,255,0.00,,,0.01,Wunderground v.1.13,2013-04-06 22:20:00,
2013-04-06 18:30:00,75.4,-99.9,30.00,NE,48,7.0,7.0,255,0.00,,,0.01,Wunderground v.1.13,2013-04-06 22:30:00,
2013-04-06 18:40:00,75.4,-99.9,30.00,NNE,16,7.0,7.0,255,0.00,,,0.01,Wunderground v.1.13,2013-04-06 22:40:00,
2013-04-06 18:50:00,75.3,-99.9,30.00,NE,37,6.0,6.0,255,0.00,,,0.01,Wunderground v.1.13,2013-04-06 22:50:00,
2013-04-06 19:00:00,74.9,-99.9,30.00,NE,34,6.0,6.0,255,0.00,,,0.01,Wunderground v.1.13,2013-04-06 23:00:00,
2013-04-06 19:10:00,74.6,-99.9,30.00,NNE,28,7.0,7.0,255,0.00,,,0.01,Wunderground v.1.13,2013-04-06 23:10:00,
2013-04-06 19:15:00,74.6,-99.9,30.00,NNE,15,7.0,7.0,255,0.00,,,0.01,Wunderground v.1.13,2013-04-06 23:15:00,
2013-04-06 19:20:00,74.4,-99.9,30.00,North,5,7.0,8.0,255,0.00,,,0.01,Wunderground v.1.13,2013-04-06 23:20:00,
2013-04-06 19:25:00,74.0,-99.9,30.00,North,5,6.0,6.0,255,0.00,,,0.01,Wunderground v.1.13,2013-04-06 23:25:00,
2013-04-06 19:35:00,73.7,-99.9,30.01,NE,34,6.0,8.0,255,0.00,,,0.01,Wunderground v.1.13,2013-04-06 23:35:00,
2013-04-06 19:45:00,73.3,-99.9,30.01,North,11,7.0,7.0,255,0.00,,,0.01,Wunderground v.1.13,2013-04-06 23:45:00,
2013-04-06 19:50:00,73.2,-99.9,30.01,NNE,32,6.0,6.0,255,0.00,,,0.01,Wunderground v.1.13,2013-04-06 23:50:00,
2013-04-06 19:55:00,73.2,-99.9,30.01,NNE,20,5.0,7.0,255,0.00,,,0.01,Wunderground v.1.13,2013-04-06 23:55:00,
2013-04-06 20:00:00,73.0,-99.9,30.01,NNE,33,5.0,6.0,255,0.00,,,0.01,Wunderground v.1.13,2013-04-07 00:00:00,
2013-04-06 20:10:00,72.8,-99.9,30.02,NNE,21,6.0,13.0,255,0.00,,,0.01,Wunderground v.1.13,2013-04-07 00:10:00,
2013-04-06 20:15:00,72.7,-99.9,30.02,North,5,7.0,7.0,255,0.00,,,0.01,Wunderground v.1.13,2013-04-07 00:15:00,
2013-04-06 20:20:00,72.7,-99.9,30.02,NNE,32,7.0,8.0,255,0.00,,,0.01,Wunderground v.1.13,2013-04-07 00:20:00,
2013-04-06 20:30:00,72.5,-99.9,30.02,NNE,26,6.0,9.0,255,0.00,,,0.01,Wunderground v.1.13,2013-04-07 00:30:00,
2013-04-06 20:35:00,72.5,-99.9,30.02,NNE,22,7.0,7.0,255,0.00,,,0.01,Wunderground v.1.13,2013-04-07 00:35:00,
2013-04-06 20:45:00,72.5,-99.9,30.02,North,5,6.0,6.0,255,0.00,,,0.01,Wunderground v.1.13,2013-04-07 00:45:00,
2013-04-06 20:55:00,72.5,-99.9,30.03,NNE,24,6.0,6.0,255,0.00,,,0.01,Wunderground v.1.13,2013-04-07 00:55:00,
2013-04-06 21:00:00,72.5,-99.9,30.03,NE,39,6.0,7.0,255,0.00,,,0.01,Wunderground v.1.13,2013-04-07 01:00:00,
2013-04-06 21:10:00,72.7,-99.9,30.03,NE,56,7.0,7.0,255,0.00,,,0.01,Wunderground v.1.13,2013-04-07 01:10:00,
2013-04-06 21:20:00,72.5,-99.9,30.03,NNE,31,4.0,4.0,255,0.00,,,0.01,Wunderground v.1.13,2013-04-07 01:20:00,
2013-04-06 21:25:00,72.5,-99.9,30.03,NNE,32,4.0,8.0,255,0.00,,,0.01,Wunderground v.1.13,2013-04-07 01:25:00,
2013-04-06 21:30:00,72.5,-99.9,30.03,NE,41,5.0,5.0,255,0.00,,,0.01,Wunderground v.1.13,2013-04-07 01:30:00,
2013-04-06 21:35:00,72.5,-99.9,30.04,NNE,22,6.0,6.0,255,0.00,,,0.01,Wunderground v.1.13,2013-04-07 01:35:00,
2013-04-06 21:40:00,72.5,-99.9,30.04,NE,37,6.0,6.0,255,0.00,,,0.01,Wunderground v.1.13,2013-04-07 01:40:00,
2013-04-06 21:50:00,72.5,-99.9,30.04,NE,44,6.0,6.0,255,0.00,,,0.01,Wunderground v.1.13,2013-04-07 01:50:00,
2013-04-06 21:55:00,72.7,-99.9,30.04,NE,42,6.0,6.0,255,0.00,,,0.01,Wunderground v.1.13,2013-04-07 01:55:00,
2013-04-06 22:00:00,72.5,-99.9,30.04,NE,46,6.0,11.0,255,0.00,,,0.01,Wunderground v.1.13,2013-04-07 02:00:00,
2013-04-06 22:10:00,72.5,-99.9,30.04,ENE,66,5.0,8.0,255,0.00,,,0.01,Wunderground v.1.13,2013-04-07 02:10:00,
2013-04-06 22:20:00,72.3,-99.9,30.04,ENE,61,6.0,7.0,255,0.00,,,0.01,Wunderground v.1.13,2013-04-07 02:20:00,
2013-04-06 22:30:00,72.1,-99.9,30.04,NE,46,7.0,7.0,255,0.00,,,0.01,Wunderground v.1.13,2013-04-07 02:30:00,
2013-04-06 22:40:00,72.1,-99.9,30.04,North,5,6.0,6.0,255,0.00,,,0.01,Wunderground v.1.13,2013-04-07 02:40:00,
2013-04-06 22:50:00,72.1,-99.9,30.05,ENE,63,6.0,8.0,255,0.00,,,0.01,Wunderground v.1.13,2013-04-07 02:50:00,
2013-04-06 22:55:00,72.0,-99.9,30.05,ENE,69,6.0,7.0,255,0.00,,,0.01,Wunderground v.1.13,2013-04-07 02:55:00,
2013-04-06 23:10:00,72.5,-99.9,30.05,NE,49,6.0,9.0,255,0.00,,,0.01,Wunderground v.1.13,2013-04-07 03:10:00,
2013-04-06 23:20:00,72.5,-99.9,30.06,NE,40,6.0,6.0,255,0.00,,,0.01,Wunderground v.1.13,2013-04-07 03:20:00,
2013-04-06 23:30:00,72.5,-99.9,30.06,NE,40,6.0,6.0,255,0.00,,,0.01,Wunderground v.1.13,2013-04-07 03:30:00,
2013-04-06 23:35:00,72.5,-99.9,30.05,ENE,71,6.0,6.0,255,0.00,,,0.01,Wunderground v.1.13,2013-04-07 03:35:00,
2013-04-06 23:40:00,72.5,-99.9,30.05,ENE,57,6.0,6.0,255,0.00,,,0.01,Wunderground v.1.13,2013-04-07 03:40:00,
2013-04-06 23:45:00,72.5,-99.9,30.05,ENE,61,6.0,6.0,255,0.00,,,0.01,Wunderground v.1.13,2013-04-07 03:45:00,
2013-04-06 23:50:00,72.3,-99.9,30.06,East,81,7.0,7.0,255,0.00,,,0.01,Wunderground v.1.13,2013-04-07 03:50:00,